Location: Brantley
(31.5822°N, 86.2569°W)
Time: 01:49:17
(UTC+00:00)

Vanguard 3 - Pass Details

Date: 20 February 2026
Orbit: 507 x 3205 km, 33.4° (Epoch: 10 March)

Event Time Altitude Azimuth Distance (km) Brightness Sun altitude
Rises 01:01:16 0° 281° (WNW) 4,164 12.3 -19.0°
Reaches altitude 10° 01:04:45 10° 282° (WNW) 2,795 11.0 -19.7°
Maximum altitude 01:10:58 88° 194° (SSW) 700 6.7 -21.0°
Enters shadow 01:12:00 54° 106° (ESE) 796 6.7 -21.2°
Drops below altitude 10° 01:15:01 10° 104° (ESE) 1,851 - -21.9°
Sets 01:16:56 0° 104° (ESE) 2,650 - -22.3°
